Weather in El Gouna

Egypt     27°23′05″N   33°40′05″E
temp.,
°C
wind,
m/s
gust,
m/s
humid.,
%
clouds,
%
prec.,
mm/h
press.,
hPa
HPBL,
m
26 june, sun
sun2623:00+29nw1419540 0.0 1006329
02:00+26nw1318620 0.0 1006383
05:00+25nw1115650 0.0 1007550
08:00+26nnw1013650 0.0 1009594
11:00+26n1114670 0.0 1008324
14:00+27n912650 0.0 1006163
17:00+28nnw1015610 0.0 1005168
20:00+30nw1015480 0.0 1006200
27 june, mon
mon2723:00+29nw914500 0.0 1006194
02:00+28nw915510 0.0 1006337
05:00+27nw1115590 0.0 1007452
08:00+27nnw913620 0.0 1008375
11:00+27nnw1014640 0.0 1007196
14:00+28n814610 0.0 1006137
17:00+30nnw814520 0.0 1004113
20:00+30nw815500 0.0 1005138
28 june, tue
tue2823:00+30nw1016450 0.0 1005213
02:00+28nw1319580 0.0 1005314
05:00+27nw1015580 0.0 1006293
08:00+27nw912610 0.0 1006248
11:00+27n912700 0.0 1006151
14:00+28n1216570 0.0 1003182
17:00+29nnw1016500 0.0 1003166
20:00+29nw915530 0.0 1004164
29 june, wed
wed2923:00+30wnw710480 0.0 100584
02:00+29nw710520 0.0 1005121
05:00+27nw1016620 0.0 1006314
08:00+28nnw711640 0.0 1006192
11:00+27n911750 0.0 1005122
14:00+28n812670 0.0 1003124
17:00+29nnw813550 0.0 1003108
20:00+29nw813540 0.0 1004119
30 june, thu
thu3023:00+29wnw68520 0.0 100568
02:00+29wnw57510 0.0 100465
05:00+28nw914610 0.0 1005250
08:00+28nnw69620 0.0 1006129
11:00+27n710720 0.0 1005107
14:00+29n1014600 0.0 1003140
17:00+30nnw914550 0.0 1003123
20:00+29nw916600 0.0 1004164